Back to catalog

STARLINK-37082

AliveCommunicationsVLEO
NORAD 68182·PAYLOAD·🇺🇸 United States

Launched Mar 14, 2026 from Vandenberg Space Force Base

Loading…

Next Passes (next 24 hours)

TLE

FreshSource: CelesTrak SupGP

Epoch: Sep 14, 2026, 14:39 UTC

1 68182C 26050R   26257.61090278  .00009865  00000+0  29132-3 0  2577
2 68182  53.1569 105.4170 0001450  81.1510 206.4399 15.34399691    14

Track STARLINK-37082 in real time with AllMySat

Download on the App Store